Location: Bruch
(44.2051°N, 0.4120°E)
Time: 08:21:01
(UTC+00:00)

CZ-2C R/B - Pass Details

Date: 29 November 2020
Orbit: 785 x 870 km, 98.2° (Epoch: 25 January)

Event Time Altitude Azimuth Distance (km) Brightness Sun altitude
Rises 06:27:11 0° 164° (SSE) 3,412 6.5 -8.0°
Reaches altitude 10° 06:29:33 10° 164° (SSE) 2,470 5.7 -7.6°
Maximum altitude 06:35:03 89° 82° (E) 844 2.8 -6.7°
Drops below altitude 10° 06:40:28 10° 347° (NNW) 2,431 4.7 -5.8°
Sets 06:42:48 0° 347° (NNW) 3,355 5.5 -5.4°
